Regional Weather Roundup
Issued by NWS Charleston, SC

Current Version | Previous Version | Graphics & Text | Print | Product List | Glossary On
Versions: 1 2 3 4 5 6 7 8 9 10 11 12 13 14 15 16 17 18 19 20 21 22 23 24 25 26 27 28 29 30 31 32 33 34 35 36 37 38 39 40 41 42 43 44 45 46 47 48 49 50
000
ASUS42 KCHS 051227
RWRCHS

REGIONAL WEATHER ROUNDUP
NATIONAL WEATHER SERVICE CHARLESTON SC
800 AM EDT TUE MAY 05 2015

NOTE: "FAIR" INDICATES FEW OR NO CLOUDS BELOW 12,000 FEET WITH NO
SIGNIFICANT WEATHER AND/OR OBSTRUCTIONS TO VISIBILITY.

NOT ALL STATIONS ARE QUALITY CONTROLLED BY THE NATIONAL
WEATHER SERVICE. USE DATA WITH CAUTION...ESPECIALLY
DEWPOINT OBSERVATIONS.

SCZ027-030-031-034>040-042>050-051300-
...SOUTHEAST SOUTH CAROLINA...

CITY           SKY/WX    TMP DP  RH WIND       PRES   REMARKS
N CHARLESTON   MOSUNNY   64  58  80 NE7       30.32R
6HR MIN TEMP:  56; 6HR MAX TEMP:  64;

WATERFRONT PRK   N/A     68 N/A N/A N9          N/A
MOUNT PLEASANT FAIR      63  61  94 MISG      30.33R
PINOPOLIS      NOT AVBL
MONCKS CORNER  FAIR      64  57  77 NE3       30.34R
SUMMERVILLE    FAIR      63  59  88 CALM      30.34R
BEAUFORT MCAS  MOSUNNY   66  61  84 NE7       30.31R
6HR MIN TEMP:  59; 6HR MAX TEMP:  66;

BEAUFORT ARPT  FAIR      68  63  83 NE8       30.31R
HILTON HEAD IS SUNNY     68  64  88 NE6       30.31R
WALTERBORO     SUNNY     63  57  82 NE5       30.34R
ALLENDALE      FAIR      63  57  82 CALM      30.33R

...SOUTHERN MIDLANDS AND PEE DEE...

CITY           SKY/WX    TMP DP  RH WIND       PRES   REMARKS
GEORGETOWN     NOT AVBL
KINGSTREE      NOT AVBL
ORANGEBURG     SUNNY     61  55  81 CALM      30.34R
6HR MIN TEMP:  52; 6HR MAX TEMP:  61;

BARNWELL       FAIR      63  57  82 NE3       30.35R
AIKEN          FAIR      59  54  82 CALM      30.38R
MANNING        FAIR      59  50  72 CALM      30.35R
COLUMBIA       SUNNY     58  53  84 CALM      30.35R
6HR MIN TEMP:  54; 6HR MAX TEMP:  62;

SUMTER         SUNNY     60  56  88 NE3       30.34R
6HR MIN TEMP:  52; 6HR MAX TEMP:  60;

FLORENCE       SUNNY     62  56  80 CALM      30.35R
6HR MIN TEMP:  54; 6HR MAX TEMP:  62;

MYRTLE BEACH   SUNNY     63  57  82 N8        30.36R
N MYRTLE BEACH SUNNY     62  58  86 NE3       30.34R
6HR MIN TEMP:  53; 6HR MAX TEMP:  62;


$$

GAZ063-065-086>088-099>101-113>116-118-119-134>141-150-051300-
...SOUTHEAST GEORGIA...

CITY           SKY/WX    TMP DP  RH WIND       PRES   REMARKS
SAVANNAH ARPT  MOSUNNY   64  60  87 NE6       30.30R
6HR MIN TEMP:  57; 6HR MAX TEMP:  64;

HUNTER AAF     SUNNY     66  63  91 NE1       30.27
6HR MIN TEMP:  60; 6HR MAX TEMP:  66;

FORT STEWART   SUNNY     63  61  92 NE6       30.27R
6HR MIN TEMP:  58; 6HR MAX TEMP:  63;

STATESBORO       N/A     62  62 100 CALM      30.32R
SYLVANIA       SUNNY     63  60  91 E3        30.33R
CLAXTON        FAIR      61  61 100 CALM      30.31R

...CSRA...CENTRAL AND FAR SOUTHEAST GEORGIA...

CITY           SKY/WX    TMP DP  RH WIND       PRES   REMARKS
THOMSON        SUNNY     59  59  99 CALM      30.39R
AUGUSTA-BUSH   SUNNY     56  55  97 CALM      30.34R
6HR MIN TEMP:  50; 6HR MAX TEMP:  56;

AUGUSTA-DANIEL SUNNY     64  55  72 E5        30.34R
SWAINSBORO     NOT AVBL
VIDALIA        SUNNY     63  61  94 E6        30.31R
EASTMAN        FAIR      60  60 100 CALM      30.34R
HAZLEHURST     FAIR      64  62  94 NE3       30.30R
ALMA           SUNNY     63  59  87 VRB5      30.28R
6HR MIN TEMP:  56; 6HR MAX TEMP:  63;

WAYCROSS       SUNNY     67  64  90 E5        30.28R
JESUP          FAIR      68  64  88 NE3       30.29R
BAXLEY         FAIR      66  61  82 NE6       30.29R
BRUNSWICK      SUNNY     66  63  88 N5        30.28R
SAINT SIMONS   SUNNY     71  61  70 NE9       30.26R
6HR MIN TEMP:  66; 6HR MAX TEMP:  71;


$$

SCZ027-028-034-036>038-045-046-048>050-GAZ119-141-051300-
...LAKE AND SUPPLEMENTAL COASTAL OBSERVATIONS...

STATION/POSITION TIME  TEMP    WIND        PRES    WAVE   SWELL
                       AIR SEA DIR/SP/G            HT/PER HT/PER/DIR
                 (UTC) (F)     (DEG/KT/KT) (MB)    (FT/S) (FT/S/D)
UPR LAKE MARION  NOT AVBL
WINYAH BAY       1145   62     340/  2     1026.0R
LAKE MURRAY      1100   60      CALM  /  1 1026.4R
ACE BASIN NERRS  NOT AVBL
FORT PULASKI     1106   70 70   60/ 11/ 13 1025.6R
SAPELO ISLAND    1200   69      30/  5     1025.0R

$$

ANZ835-935-AMZ111-154-330-350-352-354-370-450-454-472-051300-
...C-MAN AND BUOY OBSERVATIONS...

STATION/POSITION TIME  TEMP    WIND        PRES    WAVE   SWELL
                       AIR SEA DIR/SP/G            HT/PER HT/PER/DIR
                 (UTC) (F)     (DEG/KT/KT) (MB)    (FT/S) (FT/S/D)
BUOY 41004       1150   72 74   80/ 10/ 14 1025.7R   3/ 7   3/ 7
BUOY 41008       1150   71 70   60/ 12/ 14 1024.7R   4/ 6   3/100/ 6
FOLLY BEACH CMAN 1200   71      60/ 11/ 13 1026.5R
CAPERS NEARSHORE 1108   70      80/ 10/ 14 1026.2R
FRIPP NEARSHORE  1100   70      70/ 10/ 12 1024.4R


STATION/POSITION TIME  TEMP    WIND        PRES    WAVE   SWELL
                       AIR SEA DIR/SP/G            HT/PER HT/PER/DIR
                 (UTC) (F)     (DEG/KT/KT) (MB)    (FT/S) (FT/S/D)
5E ST. MARYS GA  1121      73                N/A     4/ 6   2/ 70/12
FRYING PAN BUOY  1150   72 71  100/  8/ 12 1027.9R   4/ 5   3/120/ 5
BUOY 41025       1150   73 76  190/  8/ 14 1028.5R   2/10   2/ 50/10
CAPE LOOKOUT NC  1200   69     170/  4/  4 1028.0R
BUOY 41002       1150   69 70   90/ 16/ 19 1027.1R   5/ 9   3/ 40/ 9
BUOY 41010       1120   74 78   70/ 17/ 19 1021.6R
ST AUGUSTINE FL  1200   71 71   60/  8/  9 1023.7R


$$


USA.gov is the U.S. government's official web portal to all federal, state and local government web resources and services.